Alexandria, MN

12:09 PM CST on December 05, 2019 (GMT -0600)
Chandler

Weather History for KAXN - October, 2019

Change the Weather History Date:

Monday, October 28, 2019

  Actual Average Record
Temperature  
Mean Temperature 28 °F -  
Max Temperature 32 °F 49 °F 70 °F (1948)
Min Temperature 25 °F 30 °F 14 °F (1967)
Degree Days  
Heating Degree Days 36    
Moisture  
Dew Point 16 °F    
Average Humidity 60    
Maximum Humidity 75    
Minimum Humidity 48    
Precipitation  
Precipitation 0.00 in - - ()
Sea Level Pressure  
Sea Level Pressure 30.12 in    
Wind  
Wind Speed 9 mph ()    
Max Wind Speed 16 mph    
Max Gust Speed 25 mph    
Visibility 10.0 miles    
Events      
Averages and records for this station are not official NWS values.
T = Trace of Precipitation, MM = Missing Value Source: Averaged Metar Reports

Daily Weather History Graph

Daily Weather History Graph

Search for Another Location

Airport or City:

Astronomy

Oct. 28, 2019 Rise Set
Actual Time 7:55 AM CDT 6:14 PM CDT
Civil Twilight 7:25 AM CDT 6:44 PM CDT
Nautical Twilight 6:50 AM CDT 7:19 PM CDT
Astronomical Twilight 6:15 AM CDT 7:54 PM CDT
Moon 8:17 AM CDT (10/28) 6:59 PM CDT (10/28)
Length of Visible Light 11h 19m
Length of Day
10h 18m
New Moon, 0% of the Moon is Illuminated
Oct 28
New Moon
Nov 4
First Quarter
Nov 12
Full
Nov 19
Last Quarter
Nov 26
New

Hourly Weather History & Observations

Time (CDT) Temp. Windchill Dew Point Humidity Pressure Visibility Wind Dir Wind Speed Gust Speed Precip Events Conditions
12:53 AM 28.0 °F 16.1 °F 16.0 °F 61% 30.14 in 10.0 mi WNW 16.1 mph 25.3 mph N/A   Overcast
1:53 AM 28.0 °F 18.6 °F 15.1 °F 58% 30.14 in 10.0 mi West 10.4 mph 23.0 mph N/A   Overcast
2:53 AM 27.0 °F 18.0 °F 15.1 °F 61% 30.14 in 10.0 mi WNW 9.2 mph - N/A   Overcast
3:53 AM 27.0 °F 16.1 °F 15.1 °F 61% 30.13 in 10.0 mi WNW 12.7 mph 23.0 mph N/A   Overcast
4:53 AM 27.0 °F 16.7 °F 16.0 °F 63% 30.11 in 10.0 mi West 11.5 mph - N/A   Overcast
5:53 AM 27.0 °F 17.3 °F 16.0 °F 63% 30.11 in 10.0 mi West 10.4 mph - N/A   Overcast
6:53 AM 27.0 °F 18.0 °F 17.1 °F 66% 30.10 in 10.0 mi West 9.2 mph - N/A   Overcast
7:53 AM 27.0 °F 16.7 °F 16.0 °F 63% 30.11 in 10.0 mi WSW 11.5 mph - N/A   Overcast
8:53 AM 26.1 °F 16.8 °F 15.1 °F 63% 30.12 in 10.0 mi West 9.2 mph - N/A   Mostly Cloudy
9:53 AM 27.0 °F 16.1 °F 12.9 °F 56% 30.13 in 10.0 mi SW 12.7 mph - N/A   Clear
10:53 AM 28.9 °F 18.6 °F 14.0 °F 54% 30.12 in 10.0 mi WSW 12.7 mph - N/A   Clear
11:53 AM 28.9 °F 18.6 °F 12.0 °F 49% 30.12 in 10.0 mi SSW 12.7 mph 19.6 mph N/A   Clear
12:53 PM 30.0 °F 20.5 °F 14.0 °F 51% 30.11 in 10.0 mi WSW 11.5 mph 21.9 mph N/A   Clear
1:53 PM 30.0 °F 20.0 °F 14.0 °F 51% 30.10 in 10.0 mi SW 12.7 mph - N/A   Clear
2:53 PM 30.9 °F 22.2 °F 14.0 °F 50% 30.10 in 10.0 mi WSW 10.4 mph - N/A   Clear
3:53 PM 32.0 °F 23.0 °F 14.0 °F 48% 30.08 in 10.0 mi SW 11.5 mph - N/A   Clear
4:53 PM 32.0 °F 25.6 °F 15.1 °F 50% 30.09 in 10.0 mi SSW 6.9 mph - N/A   Clear
5:53 PM 30.0 °F 25.2 °F 16.0 °F 56% 30.09 in 10.0 mi SSW 4.6 mph - N/A   Clear
6:53 PM 28.0 °F 22.8 °F 16.0 °F 61% 30.10 in 10.0 mi South 4.6 mph - N/A   Clear
7:53 PM 27.0 °F 19.5 °F 18.0 °F 69% 30.12 in 10.0 mi South 6.9 mph - N/A   Clear
8:53 PM 26.1 °F 20.5 °F 18.0 °F 71% 30.12 in 10.0 mi South 4.6 mph - N/A   Clear
9:53 PM 25.0 °F 19.3 °F 18.0 °F 75% 30.13 in 10.0 mi SSE 4.6 mph - N/A   Clear
10:53 PM 28.9 °F 22.8 °F 19.9 °F 69% 30.14 in 10.0 mi SSW 5.8 mph - N/A   Overcast